TimeMST,TemperatureF,Dew PointF,Humidity,Sea Level PressureIn,VisibilityMPH,Wind Direction,Wind SpeedMPH,Gust SpeedMPH,PrecipitationIn,Events,Conditions,WindDirDegrees,DateUTC
12:53 AM,-2.9,-8.0,79,30.15,10.0,South,5.8,-,N/A,,Clear,190,2013-12-20 07:53:00
1:53 AM,-0.9,-7.1,75,30.11,10.0,Calm,Calm,-,N/A,,Clear,0,2013-12-20 08:53:00
2:53 AM,-4.0,-9.0,79,30.09,10.0,ESE,4.6,-,N/A,,Clear,120,2013-12-20 09:53:00
3:53 AM,-2.9,-7.1,82,30.07,10.0,Calm,Calm,-,N/A,,Clear,0,2013-12-20 10:53:00
4:53 AM,-0.9,-6.0,79,30.02,10.0,South,5.8,-,N/A,,Clear,170,2013-12-20 11:53:00
5:53 AM,1.0,-5.1,75,29.99,10.0,SW,3.5,-,N/A,,Clear,220,2013-12-20 12:53:00
6:53 AM,-2.0,-7.1,79,30.00,10.0,Calm,Calm,-,N/A,,Clear,0,2013-12-20 13:53:00
7:53 AM,-0.0,-6.0,76,29.98,10.0,Calm,Calm,-,N/A,,Clear,0,2013-12-20 14:53:00
8:53 AM,1.9,-2.9,80,29.98,10.0,Calm,Calm,-,N/A,,Clear,0,2013-12-20 15:53:00
9:53 AM,3.9,-0.0,84,29.98,10.0,Calm,Calm,-,N/A,,Clear,0,2013-12-20 16:53:00
10:53 AM,8.1,3.9,83,29.95,10.0,Calm,Calm,-,N/A,,Clear,0,2013-12-20 17:53:00
11:53 AM,12.9,6.1,74,29.91,10.0,Calm,Calm,-,N/A,,Clear,0,2013-12-20 18:53:00
12:53 PM,18.0,9.0,68,29.88,10.0,Calm,Calm,-,N/A,,Clear,0,2013-12-20 19:53:00
1:53 PM,18.0,10.9,74,29.85,10.0,South,9.2,-,N/A,,Clear,190,2013-12-20 20:53:00
2:53 PM,21.9,12.0,66,29.85,10.0,Calm,Calm,-,N/A,,Clear,0,2013-12-20 21:53:00
3:53 PM,19.9,12.0,71,29.84,10.0,Calm,Calm,-,N/A,,Clear,0,2013-12-20 22:53:00
4:53 PM,17.1,10.9,77,29.83,10.0,Calm,Calm,-,N/A,,Mostly Cloudy,0,2013-12-20 23:53:00
5:53 PM,17.1,12.0,81,29.81,10.0,South,5.8,-,N/A,,Overcast,180,2013-12-21 00:53:00
6:53 PM,17.1,10.9,77,29.80,10.0,SSW,5.8,-,N/A,,Mostly Cloudy,210,2013-12-21 01:53:00
7:53 PM,17.1,9.0,71,29.77,10.0,South,3.5,-,N/A,,Clear,180,2013-12-21 02:53:00
8:53 PM,12.9,7.0,77,29.76,10.0,SSE,5.8,-,N/A,,Clear,150,2013-12-21 03:53:00
9:53 PM,10.9,5.0,77,29.75,10.0,Calm,Calm,-,N/A,,Clear,0,2013-12-21 04:53:00
10:53 PM,14.0,9.0,80,29.73,10.0,NW,8.1,-,N/A,,Overcast,310,2013-12-21 05:53:00
11:53 PM,15.1,10.0,80,29.70,10.0,NNW,5.8,-,N/A,,Overcast,340,2013-12-21 06:53:00